Lid_Strength_Index
-1 -1 -1 2 7 7 9 8 6 7 6 5 5 5 6 5 6 8 1 0 -0 -0 -1 -1 -1 -1 -1 -1 -1 -1 -1 -1 -1 -1 -1 -1 -1 -1 -1 -1 -1 -1 -1 -1 -1 -1 -1 -1 -1
0 1 1 3 8 10 9 6 7 6 5 4 5 5 5 6 3 3 2 0 -0 -0 -1 -1 -0 -1 -1 -1 -1 -1 -1 -1 -1 -1 -1 -1 -1 -1 -1 -1 -1 -1 -1 -1 -1 -1 -1 -1 -0
0 1 4 6 7 10 9 7 6 5 4 5 5 4 4 5 3 2 0 -0 -0 -0 -1 -1 -0 -1 -1 -1 -1 -1 -1 -1 -1 -1 -1 -1 -1 -1 -1 -1 -1 -1 -1 -1 -1 -1 -1 -0 -0
1 2 4 8 9 7 7 6 5 5 5 5 5 6 4 2 3 1 0 -0 -0 -0 -1 -1 -1 -1 -1 -1 -1 -1 -1 -1 -1 -1 -1 -1 -1 -1 -1 -1 -1 -1 -1 -1 -1 -1 -1 -1 1
2 4 7 8 8 7 6 5 5 6 5 5 5 6 5 3 2 1 0 -0 0 -0 -1 -1 -1 -1 -1 -1 -1 -1 -1 -1 -1 -1 -1 -1 -1 -1 -1 -1 -1 -1 -1 -1 -1 -1 -1 -0 1
5 5 8 9 8 7 6 5 5 5 5 5 6 5 4 2 2 1 0 0 -0 -0 -1 -1 0 -0 -0 -1 -1 -1 -1 -1 -1 -2 -2 -2 -2 -1 -1 -1 -1 -1 -1 -1 -2 -1 0 1 2
5 6 8 8 8 8 6 5 5 5 5 5 4 6 4 3 2 1 0 -0 -0 -0 -0 -1 -1 -0 1 0 0 -0 -1 -1 -1 -1 -2 -2 -2 -1 -1 -2 -1 -1 -2 -2 -1 -0 1 1 2
4 6 8 8 9 9 6 5 5 5 6 4 4 6 5 2 2 1 0 0 0 -0 -0 -0 -1 -1 -1 -1 2 1 0 -0 -0 -0 -0 -0 -1 -1 -2 -1 -2 -2 -1 -1 -0 0 1 2 3
4 8 9 8 9 8 6 7 5 4 5 4 4 4 3 3 2 1 1 1 1 1 0 -0 -0 -1 -1 -1 -0 1 1 1 0 1 1 2 -1 -1 -1 -1 -2 -2 -1 -0 0 1 2 3 5
6 8 8 7 7 7 7 7 6 6 6 5 5 3 3 3 3 3 2 2 2 1 1 0 -0 -0 -1 -0 -1 -1 -1 -1 -1 -1 -0 -0 -1 -1 -0 0 -1 -2 -1 0 1 2 3 5 6
6 9 7 7 6 6 7 7 6 7 7 6 6 5 4 4 3 3 3 2 1 1 1 0 -0 -0 -0 -0 -1 -1 -1 -1 -1 -1 -1 -1 -1 -1 -0 -0 -0 -0 2 2 2 5 7 6 6
8 7 7 6 6 7 7 6 7 7 6 4 4 4 4 4 4 4 4 3 2 1 1 0 -0 -0 -0 -0 -0 -0 -0 -1 -0 -1 -1 -1 -1 -1 -0 0 0 -0 1 2 3 5 5 6 7
8 7 7 6 6 6 6 8 8 7 5 5 5 5 5 5 4 4 3 3 3 2 1 0 -0 0 -0 0 -0 -0 -0 -0 -1 -1 -1 -1 -0 -0 0 1 0 0 2 3 4 6 7 7 8
7 7 7 7 7 7 8 8 7 7 6 6 6 6 5 5 5 5 4 4 4 3 3 1 0 -0 -0 0 -0 -0 -0 -1 -1 -1 -1 -1 -1 -0 1 1 1 1 2 4 6 6 7 7 7
8 10 8 8 8 8 8 9 9 6 6 7 7 6 6 6 5 5 5 4 4 4 4 2 1 -0 0 0 0 -0 -0 -0 -0 -0 -1 -1 -1 0 1 2 2 2 3 5 6 7 7 8 8
10 9 11 8 9 9 9 12 8 7 7 7 7 6 6 6 6 5 5 5 4 4 4 4 3 1 0 0 0 -0 -0 -0 -0 -0 -1 -1 -0 1 2 3 3 3 5 6 7 8 8 8 9
9 12 11 10 8 9 10 11 9 7 8 8 7 7 7 6 6 6 6 6 6 5 5 5 4 3 1 0 -0 -0 -0 -0 -0 -1 -1 -0 1 2 3 3 3 4 6 7 8 8 8 8 9
11 11 10 11 8 10 10 10 9 8 8 8 7 7 7 7 8 7 7 7 7 6 6 5 5 4 2 1 0 0 0 -0 -0 -0 -0 0 1 2 4 4 5 6 7 8 7 8 8 8 9
10 11 11 10 8 10 11 11 10 8 8 8 7 7 7 8 7 8 8 8 8 8 8 7 6 5 5 3 3 2 1 1 0 0 0 1 2 3 4 5 5 7 8 8 8 8 9 8 9
10 11 11 10 9 11 11 11 10 9 8 8 8 8 8 8 9 9 9 9 9 9 9 8 8 7 6 4 3 3 2 2 1 1 1 2 2 3 5 6 6 7 8 8 8 9 10 9 10
11 12 12 12 10 10 11 12 10 8 8 8 8 8 9 10 10 10 9 10 10 10 10 9 9 8 7 6 5 4 4 6 6 4 3 3 3 4 5 6 7 7 8 8 8 9 10 11 11
13 10 11 12 13 14 11 16 11 9 9 10 9 9 10 10 10 10 10 10 10 10 9 9 9 9 8 7 7 7 7 7 7 6 5 5 5 5 6 7 7 8 8 9 9 9 9 9 12
12 11 12 12 13 13 12 14 12 10 10 11 10 10 10 10 10 10 10 10 10 10 10 9 10 10 10 9 8 8 8 8 7 7 8 7 6 6 6 7 8 8 9 9 9 10 9 9 10
11 12 11 11 12 16 12 12 13 11 10 11 11 10 10 10 9 9 9 9 10 10 10 10 10 10 9 10 10 10 10 9 9 8 8 8 8 7 7 7 8 8 9 9 9 9 10 10 10
11 12 15 16 16 17 11 13 12 9 10 10 11 11 10 10 9 9 9 10 10 10 10 10 10 10 10 10 10 10 10 10 10 10 9 9 9 8 8 8 9 9 9 9 9 10 10 10 10
10 10 15 20 18 16 13 15 11 10 10 10 11 11 11 11 10 10 10 10 10 10 10 10 11 11 11 10 10 10 10 11 11 10 10 10 9 9 8 9 9 9 9 9 10 10 11 11 11
10 12 10 14 14 17 13 11 8 10 10 10 11 11 11 11 11 11 10 9 10 10 10 10 11 11 11 11 10 10 10 10 11 10 11 11 11 10 10 10 10 10 10 10 10 10 11 11 11
9 8 15 14 21 21 14 13 12 9 9 10 11 11 11 10 10 10 10 9 9 9 9 9 10 11 11 11 11 11 11 11 11 11 11 11 11 11 11 11 11 11 11 11 11 11 11 11 12
10 11 11 11 13 18 19 14 8 9 9 10 11 12 11 11 10 10 10 10 9 10 9 9 10 11 11 11 11 11 12 12 12 13 13 12 11 11 11 11 12 12 12 12 12 12 12 13 12
9 10 11 15 17 14 15 16 7 9 9 10 11 12 11 11 12 12 10 11 11 10 10 11 10 10 11 12 11 11 11 12 13 14 13 13 12 12 11 12 12 12 12 12 12 13 13 13 13